Vorticity
6 3 4 4 6 6 6 6 7 6 4 4 4 6 5 5 10 12 10 9 10 8 6 5 5 4 7 5 8 8 8 8 9 8 7 6 6 7 8 8 7 7 6 6 5 6 6
6 4 3 4 4 4 6 5 7 5 3 5 6 6 7 10 11 11 11 8 3 5 4 4 5 5 6 6 4 6 4 5 4 4 5 5 4 5 5 4 3 5 4 4 5 6 7
5 6 6 5 5 5 5 7 3 2 6 5 7 13 13 11 11 14 5 3 4 2 2 3 3 3 5 4 5 4 6 4 5 4 5 4 4 5 5 5 4 4 4 6 5 5 4
8 7 5 7 6 6 6 4 2 5 3 9 15 16 9 12 12 6 3 3 4 3 3 5 4 0 2 4 4 7 4 4 8 4 3 4 6 6 5 6 6 6 4 4 6 6 5
10 9 5 5 7 3 4 4 5 7 10 14 11 10 10 10 5 4 4 4 2 3 3 2 3 3 3 5 4 5 5 4 4 7 3 8 11 6 7 6 5 4 4 3 4 4 4
10 8 6 5 4 4 4 6 5 12 11 11 10 9 10 4 4 4 2 3 4 2 3 3 5 7 5 3 3 4 7 7 7 8 3 16 9 8 7 8 5 3 5 4 5 5 4
9 8 7 6 7 6 7 5 12 9 12 13 8 5 5 5 2 3 2 1 0 2 3 6 6 6 6 8 7 7 7 7 4 12 14 11 9 5 6 7 6 6 3 5 5 5 5
5 5 5 6 6 5 6 11 9 9 12 6 4 4 3 2 2 3 3 2 2 1 6 10 9 6 6 15 16 14 17 16 14 17 12 9 7 9 6 6 6 8 6 2 4 7 6
6 4 4 4 5 8 8 6 7 12 4 6 5 3 4 3 3 3 2 3 11 14 12 13 12 13 20 15 13 15 16 17 18 9 5 3 5 4 2 2 5 2 5 7 8 6 4
5 5 6 3 6 4 5 9 12 5 5 5 4 4 3 3 4 2 8 15 11 11 8 8 17 8 11 10 8 14 13 10 5 1 3 7 6 5 2 5 6 6 3 4 5 5 6
6 6 5 6 6 6 9 9 6 5 3 3 4 4 3 2 4 15 12 6 11 15 6 11 13 6 7 10 10 5 4 3 2 1 3 5 5 6 3 3 5 4 6 7 8 7 4
8 6 9 7 6 8 9 7 4 5 5 7 5 0 8 20 16 9 7 8 5 9 15 12 11 9 9 8 5 8 7 3 6 4 2 2 4 5 3 4 4 4 6 8 7 5 -3
6 5 6 8 10 11 8 7 8 9 8 -0 -4 9 13 8 4 4 8 8 8 12 10 6 7 9 9 7 6 3 7 7 5 4 2 -1 1 5 6 1 -1 2 11 9 8 7 6
9 8 5 6 6 5 7 8 7 9 2 -1 11 17 4 6 8 6 10 10 11 8 9 4 13 6 9 8 5 4 6 8 10 11 9 7 8 4 6 6 7 4 7 12 19 11 10
9 7 7 6 7 7 8 10 8 3 -1 15 8 4 4 3 8 12 8 7 4 4 1 9 3 9 9 11 9 11 7 7 5 4 7 11 8 8 6 3 8 11 6 7 8 5 9
9 8 9 6 9 13 14 5 2 3 10 1 8 5 5 7 7 7 8 6 6 2 5 5 6 11 6 9 8 8 6 8 9 8 8 7 11 2 2 4 5 10 8 14 12 9 11
8 8 6 10 8 11 7 3 2 2 10 13 8 6 4 3 4 4 5 4 6 7 4 5 4 4 4 6 11 9 8 8 6 5 6 6 6 6 4 7 15 11 6 12 13 4 5
7 8 8 7 9 8 4 1 1 4 4 10 5 6 4 5 6 8 6 5 2 5 3 4 5 4 9 10 10 8 8 9 8 4 2 2 5 13 7 4 5 9 6 12 16 5 6
7 7 6 6 8 7 1 4 -0 5 1 8 8 5 6 5 6 7 3 5 5 5 4 6 7 12 12 8 10 9 7 4 5 8 12 8 5 12 20 12 7 10 13 15 29 28 13
1 4 6 8 7 4 6 6 2 5 7 9 13 4 6 7 5 6 5 4 2 3 7 9 8 12 13 8 4 3 7 9 11 10 10 12 12 14 15 16 24 26 13 14 -4 8 19
4 4 5 5 7 0 5 9 5 9 7 11 9 3 4 6 6 1 4 5 6 8 7 15 16 7 3 4 5 5 4 8 8 8 8 12 16 16 25 35 36 28 40 34 34 27 -4
6 -1 2 4 10 -2 0 11 7 6 1 6 6 6 4 4 1 5 5 5 10 15 17 8 5 5 6 7 9 13 11 10 12 15 15 23 30 35 37 23 21 26 28 36 35 37 47
19 5 1 4 2 6 6 11 8 7 5 6 6 5 4 5 5 6 7 10 16 12 3 4 5 6 7 9 9 10 11 14 22 26 35 37 27 17 13 19 24 31 26 21 31 35 47
21 26 4 10 6 6 6 13 6 1 5 4 5 4 8 3 5 7 13 16 5 4 4 4 5 9 7 12 10 14 22 27 37 28 24 17 19 14 14 12 22 22 7 16 2 8 7
44 3 13 4 3 5 0 9 8 4 10 5 6 7 3 5 8 16 8 7 5 4 5 7 9 6 9 11 18 16 21 31 25 12 16 15 15 10 6 11 12 13 19 21 0 -15 7
30 15 9 7 1 5 -0 7 4 11 6 9 6 3 4 8 12 7 6 6 5 5 6 10 12 9 13 19 20 32 31 19 10 13 15 16 7 14 19 16 17 25 -5 2 1 42 19
7 9 8 21 3 11 17 5 8 6 10 6 3 4 14 10 5 7 5 6 4 9 7 14 9 20 20 24 33 24 12 9 13 13 16 19 20 6 18 10 6 11 33 6 6 9 6
31 38 14 16 -2 10 2 7 9 9 7 2 5 13 6 5 8 4 3 2 10 7 11 8 20 18 29 34 20 9 6 10 16 15 19 15 10 7 14 15 16 2 14 32 26 9 13
17 10 16 10 12 12 14 15 8 0 2 10 9 6 5 8 4 2 5 9 6 8 9 17 15 33 35 10 9 6 12 17 15 15 13 14 21 18 10 3 13 7 0 5 10 30 21
Height
5810 5811 5812 5812 5812 5812 5813 5813 5813 5812 5811 5810 5808 5807 5806 5805 5803 5802 5801 5800 5799 5799 5798 5797 5795 5794 5793 5792 5792 5790 5789 5788 5786 5785 5784 5783 5782 5782 5781 5780 5780 5780 5779 5778 5778 5776 5776
5809 5810 5810 5810 5810 5810 5811 5811 5810 5810 5808 5807 5805 5804 5803 5802 5801 5800 5799 5798 5798 5797 5796 5795 5794 5794 5792 5791 5789 5788 5786 5784 5783 5782 5781 5780 5778 5777 5776 5775 5775 5774 5773 5772 5772 5771 5770
5807 5808 5808 5808 5808 5808 5808 5807 5807 5807 5806 5804 5803 5801 5800 5799 5798 5797 5797 5797 5796 5796 5795 5794 5792 5791 5790 5789 5786 5785 5783 5782 5780 5778 5777 5776 5774 5773 5771 5770 5769 5768 5767 5766 5766 5764 5763
5804 5805 5805 5805 5805 5805 5805 5804 5804 5803 5802 5801 5799 5798 5798 5797 5796 5796 5796 5795 5794 5794 5792 5791 5789 5788 5787 5784 5783 5781 5779 5777 5775 5773 5772 5770 5769 5767 5766 5764 5762 5762 5762 5761 5760 5758 5757
5799 5801 5802 5802 5802 5802 5801 5801 5801 5800 5798 5797 5797 5796 5795 5795 5794 5794 5794 5793 5792 5791 5789 5787 5786 5783 5782 5780 5777 5775 5773 5771 5770 5768 5766 5764 5763 5762 5760 5757 5757 5756 5754 5754 5753 5752 5750
5794 5797 5798 5799 5799 5799 5799 5798 5797 5796 5795 5794 5793 5792 5792 5792 5792 5792 5791 5790 5788 5786 5784 5781 5780 5779 5775 5773 5771 5768 5766 5765 5763 5761 5760 5759 5757 5755 5752 5751 5750 5748 5746 5745 5744 5744 5741
5791 5792 5793 5795 5796 5795 5795 5794 5793 5792 5791 5791 5791 5790 5790 5790 5789 5788 5787 5786 5785 5783 5779 5776 5773 5770 5768 5766 5763 5761 5758 5757 5756 5754 5753 5751 5751 5748 5746 5744 5742 5741 5739 5737 5735 5733 5732
5786 5788 5789 5790 5792 5792 5791 5790 5790 5789 5788 5788 5788 5788 5787 5786 5785 5783 5782 5780 5778 5776 5773 5770 5767 5763 5760 5757 5754 5752 5752 5751 5748 5747 5745 5745 5743 5741 5739 5737 5735 5733 5730 5728 5726 5723 5721
5784 5784 5783 5784 5785 5787 5788 5787 5785 5784 5784 5785 5784 5784 5783 5781 5780 5778 5776 5773 5770 5767 5763 5762 5759 5756 5753 5750 5748 5746 5744 5743 5742 5740 5739 5738 5736 5733 5731 5728 5726 5723 5720 5717 5715 5713 5710
5780 5782 5782 5782 5781 5779 5781 5783 5782 5781 5780 5779 5779 5779 5778 5776 5775 5772 5769 5766 5763 5760 5756 5755 5751 5748 5745 5743 5742 5739 5738 5739 5737 5735 5733 5732 5729 5726 5723 5720 5714 5713 5709 5706 5703 5699 5697
5774 5777 5777 5777 5774 5776 5775 5776 5777 5777 5776 5775 5774 5772 5771 5769 5767 5764 5762 5759 5756 5753 5750 5748 5744 5741 5739 5739 5737 5735 5734 5733 5730 5728 5726 5725 5721 5717 5714 5709 5703 5701 5697 5694 5689 5686 5683
5771 5772 5773 5772 5773 5771 5770 5769 5771 5772 5771 5771 5769 5767 5765 5762 5760 5758 5755 5752 5750 5748 5743 5741 5738 5735 5734 5733 5731 5729 5728 5725 5723 5720 5718 5715 5710 5706 5703 5698 5692 5687 5683 5679 5675 5671 5667
5768 5766 5767 5770 5768 5767 5767 5766 5764 5766 5766 5765 5764 5761 5759 5757 5755 5752 5748 5746 5744 5740 5738 5735 5732 5730 5728 5726 5724 5721 5719 5715 5711 5709 5707 5705 5700 5696 5690 5686 5680 5675 5670 5662 5657 5655 5653
5762 5762 5762 5762 5764 5763 5762 5761 5761 5759 5759 5759 5757 5755 5753 5751 5748 5745 5742 5740 5737 5733 5730 5728 5726 5723 5721 5718 5715 5711 5708 5703 5700 5696 5692 5690 5689 5681 5676 5671 5667 5662 5658 5650 5638 5638 5639
5756 5756 5757 5756 5758 5757 5757 5755 5756 5756 5754 5752 5750 5748 5747 5745 5742 5739 5736 5733 5729 5727 5724 5720 5717 5714 5712 5708 5704 5699 5696 5691 5688 5684 5679 5671 5674 5669 5662 5657 5651 5647 5641 5634 5624 5621 5616
5750 5751 5751 5752 5751 5751 5752 5751 5751 5750 5748 5746 5744 5742 5741 5738 5735 5732 5729 5725 5721 5719 5715 5712 5709 5706 5701 5697 5692 5687 5681 5677 5671 5667 5661 5654 5651 5651 5648 5642 5636 5627 5624 5617 5613 5603 5599
5745 5745 5745 5745 5745 5745 5745 5746 5744 5744 5742 5739 5737 5736 5733 5731 5728 5725 5721 5718 5714 5711 5707 5703 5699 5694 5691 5685 5681 5675 5667 5663 5658 5650 5643 5635 5630 5640 5629 5626 5617 5609 5607 5600 5593 5591 5583
5739 5739 5739 5738 5738 5738 5739 5739 5738 5736 5735 5732 5731 5729 5727 5724 5722 5717 5713 5709 5706 5701 5696 5693 5688 5683 5678 5672 5667 5660 5654 5646 5641 5634 5626 5617 5605 5604 5613 5608 5592 5588 5584 5580 5571 5571 5569
5731 5731 5731 5731 5732 5731 5732 5731 5730 5728 5727 5725 5723 5722 5719 5716 5712 5708 5704 5701 5696 5691 5686 5682 5676 5671 5665 5659 5652 5646 5638 5630 5621 5612 5603 5597 5585 5576 5581 5586 5572 5563 5562 5559 5553 5551 5548
5723 5723 5723 5724 5724 5724 5724 5723 5722 5721 5720 5718 5716 5713 5711 5707 5703 5699 5695 5690 5685 5680 5675 5669 5663 5657 5651 5645 5638 5629 5621 5610 5602 5592 5582 5574 5566 5559 5549 5546 5540 5539 5542 5540 5533 5528 5529
5714 5715 5715 5715 5715 5716 5717 5716 5714 5713 5712 5710 5707 5705 5702 5698 5695 5689 5684 5679 5673 5668 5663 5656 5650 5643 5637 5630 5623 5615 5605 5595 5583 5571 5561 5552 5547 5537 5529 5522 5514 5507 5506 5505 5504 5505 5502
5703 5704 5705 5708 5707 5707 5708 5706 5706 5704 5703 5701 5699 5696 5693 5689 5684 5679 5673 5668 5661 5654 5649 5644 5636 5628 5622 5614 5604 5594 5585 5572 5567 5553 5540 5529 5522 5513 5511 5506 5499 5493 5487 5484 5480 5480 5481
5691 5693 5696 5697 5699 5699 5699 5697 5696 5695 5695 5691 5689 5686 5682 5678 5672 5668 5662 5655 5649 5642 5637 5630 5623 5615 5606 5597 5586 5573 5561 5550 5539 5530 5520 5511 5504 5498 5495 5489 5486 5482 5478 5472 5469 5466 5466
5680 5682 5685 5688 5689 5690 5690 5689 5687 5686 5685 5682 5680 5676 5672 5667 5661 5656 5649 5643 5636 5629 5622 5616 5608 5599 5590 5579 5568 5553 5541 5528 5517 5507 5502 5498 5492 5488 5484 5480 5478 5475 5471 5467 5463 5461 5459
5671 5674 5677 5678 5680 5681 5681 5680 5679 5677 5675 5673 5669 5666 5661 5656 5650 5644 5637 5630 5624 5616 5607 5598 5590 5582 5571 5559 5548 5538 5525 5515 5507 5500 5492 5488 5485 5481 5477 5474 5473 5469 5466 5463 5459 5459 5454
5660 5664 5666 5670 5671 5670 5671 5671 5670 5668 5666 5664 5660 5656 5651 5644 5639 5632 5626 5619 5610 5601 5592 5583 5572 5561 5550 5538 5526 5515 5511 5506 5500 5495 5487 5481 5478 5475 5471 5467 5464 5464 5461 5456 5453 5451 5447
5652 5655 5658 5660 5661 5662 5662 5662 5660 5659 5657 5654 5650 5644 5639 5633 5627 5620 5613 5605 5595 5585 5575 5563 5553 5542 5528 5519 5512 5507 5502 5497 5491 5485 5481 5477 5472 5470 5465 5461 5459 5455 5453 5448 5446 5446 5441
5644 5646 5649 5651 5652 5653 5653 5652 5651 5650 5647 5643 5638 5634 5628 5621 5614 5607 5599 5590 5580 5570 5559 5548 5537 5525 5516 5508 5503 5499 5493 5488 5483 5477 5473 5470 5466 5463 5459 5455 5452 5448 5445 5442 5438 5433 5432
5636 5639 5641 5644 5645 5646 5646 5644 5642 5640 5637 5632 5627 5621 5615 5608 5601 5593 5583 5574 5564 5554 5544 5531 5522 5511 5505 5499 5495 5491 5485 5480 5476 5471 5467 5463 5460 5457 5454 5450 5445 5441 5436 5432 5428 5424 5421